This demonstration page uses our WeatherBlox Daily Observations layout. Learn more.

Left ArrowRight Arrow

39.01783, -85.05884

Hourly Observations for August 12, 2017

Temp ( °F °C ) Dew Point ( °F °C ) Humidity (%) Winds ( mph kmh ) Pressure ( in mb ) Visibility ( mi km ) Precip ( " mm )
12:52 am 00:52 Partly Cloudy 72 22.2 68 20 87 87 WSW 3 6 29.94 1014 9 14 0.00 0.00
1:52 am 01:52 Mostly Cloudy 71 21.7 69 20.6 94 94 WSW 6 9 29.94 1014 8 13 0.00 0.00
2:52 am 02:52 Mostly Cloudy 70 21.1 69 20.6 97 97 W 6 9 29.94 1014 8 13 0.00 0.00
3:52 am 03:52 Mostly Clear 70 21.1 69 20.6 97 97 NW 7 11 29.93 1014 8 13 0.00 0.00
4:52 am 04:52 Partly Cloudy 69 20.6 68 20 96 96 NNW 7 11 29.93 1014 8 13 0.00 0.00
5:52 am 05:52 Cloudy 69 20.6 68 20 96 96 N 10 17 29.93 1014 8 13 0.00 0.00
6:52 am 06:52 Mostly Sunny 67 19.4 66 18.9 97 97 NNW 5 7 29.95 1014 8 13 0.00 0.00
7:52 am 07:52 Partly Cloudy 67 19.4 65 18.3 93 93 N 7 11 29.97 1015 10 16 0.00 0.00
8:52 am 08:52 Mostly Sunny 70 21.1 65 18.3 84 84 NNE 5 7 29.97 1015 10 16 0.00 0.00
9:52 am 09:52 Mostly Sunny 72 22.2 65 18.3 79 79 N 5 7 29.97 1015 10 16 0.00 0.00
10:52 am 10:52 Sunny 74 23.3 65 18.3 74 74 N 9 15 29.98 1015 10 16 0.00 0.00
11:52 am 11:52 Partly Cloudy 76 24.4 62 16.7 62 62 NNW 9 15 29.98 1015 10 16 0.00 0.00
12:52 pm 12:52 Partly Cloudy 78 25.6 61 16.1 56 56 NNW 9 15 29.98 1015 10 16 0.00 0.00
1:52 pm 13:52 Partly Cloudy 80 26.7 59 15 49 49 N 13 20 29.99 1016 10 16 0.00 0.00
2:52 pm 14:52 Partly Cloudy 81 27.2 59 15 47 47 NW 14 22 29.98 1015 10 16 0.00 0.00
3:52 pm 15:52 Partly Cloudy 81 27.2 57 13.9 44 44 NW 10 17 29.97 1015 10 16 0.00 0.00
4:52 pm 16:52 Partly Cloudy 79 26.1 58 14.4 49 49 N 10 17 29.96 1015 10 16 0.00 0.00
5:52 pm 17:52 Mostly Sunny 80 26.7 57 13.9 45 45 NNW 9 15 29.96 1015 10 16 0.00 0.00
6:52 pm 18:52 Mostly Sunny 79 26.1 57 13.9 47 47 N 10 17 29.96 1015 10 16 0.00 0.00
7:52 pm 19:52 Mostly Sunny 76 24.4 58 14.4 54 54 N 7 11 29.96 1015 10 16 0.00 0.00
8:52 pm 20:52 Mostly Clear 73 22.8 59 15 62 62 NNW 6 9 29.96 1015 10 16 0.00 0.00
9:52 pm 21:52 Mostly Clear 72 22.2 60 15.6 66 66 NNW 3 6 29.99 1016 10 16 0.00 0.00
10:52 pm 22:52 Mostly Clear 68 20 60 15.6 76 76 NW 3 6 30.00 1016 10 16 0.00 0.00
11:52 pm 23:52 Partly Cloudy 68 20 60 15.6 76 76 NNW 7 11 29.99 1016 10 16 0.00 0.00

Powered by AerisWeather